TeikyoSat 4
1 49396U 21102B   25308.85899247  .00002365  00000-0  15589-3 0  9994
2 49396  97.3947 341.8774 0012033 352.5494   7.5554 15.08373893218898
Z-Sat
1 49399U 21102E   25308.89444840  .00004526  00000-0  23907-3 0  9990
2 49399  97.3637 345.9792 0016100 313.3690  46.6201 15.15890763219436
KOSEN 1
1 49402U 21102H   25308.40280851  .00009512  00000-0  41011-3 0  9998
2 49402  97.3534 350.1043 0013286 282.2027  77.7721 15.22688890219766
HO-113
1 50466U 21131B   25308.87865898  .00000659  00000-0  21873-3 0  9990
2 50466  98.5070  37.4904 0004995  61.6677 298.5015 14.41029575202809
SNUGLITE 2
1 52899U 22065F   25308.86346753  .00001443  00000-0  28647-3 0  9990
2 52899  98.1903  89.6212 0007691  16.8084 343.3372 14.63668119178177
UmKA 1 (RS40S)
1 57172U 23091G   25308.83413604  .00007388  00000-0  37220-3 0  9997
2 57172  97.5402   3.4726 0013906 174.8301 185.3078 15.17390689129942
CubeBel-2 (EU11S)
1 57175U 23091K   25308.81938309  .00011670  00000-0  50323-3 0  9990
2 57175  97.5401   5.6242 0011375 177.4299 182.6998 15.22653367130083
ENSO
1 58470U 23185J   25305.67353662  .00814819  32711-3  13838-2 0  9999
2 58470  97.3445  28.0363 0007748 264.7060  95.3336 16.02640667107770
SONATE-2
1 59112U 24043Q   25308.79663545  .00024745  00000-0  57474-3 0  9996
2 59112  97.5314  83.7178 0008958 304.0379  56.0016 15.42311273 93121
MO-122
1 60209U 24125G   25308.56720509  .00029949  00000-0  67515-3 0  9993
2 60209  97.2573 158.9896 0015208 330.1027  29.9351 15.43082971 74718
GRBBeta
1 60237U 24128C   25308.26896397  .00005441  00000-0  39123-3 0  9998
2 60237  61.9902 284.0803 0057066  88.4364 272.3263 15.04176770 72405
Curium One
1 60242U 24128H   25308.41298529  .00009979  00000-0  63756-3 0  9993
2 60242  61.9796 279.3148 0057035  85.1080 275.6522 15.07835765 72500
ROBUSTA-3A
1 60243U 24128J   25308.46711921  .00010354  00000-0  67209-3 0  9991
2 60243  61.9869 280.4970 0056726  82.6640 278.0896 15.07238664 72492
CatSat
1 60246U 24125J   25308.82632583  .00030875  00000-0  83701-3 0  9992
2 60246  97.2379 156.7019 0034875 285.4782  74.2612 15.36955867 72690
HYPERVIEW-1G (RS66S)
1 61772U 24199AP  25308.87446270  .00037147  00000-0  81556-3 0  9994
2 61772  97.3260 177.9369 0012617  28.2722 331.9209 15.43865655 99760
AO-123
1 61781U 24199AY  25308.90509696  .00010620  00000-0  35702-3 0  9999
2 61781  97.3292 174.7898 0016299  36.6628 323.5725 15.30869394 99552
ZIMSAT 2
1 61783U 24199BA  25308.89016825  .00104853  00000-0  13293-2 0  9998
2 61783  97.3182 180.3939 0010220  27.0985 333.0803 15.59045704103088
HADES-R (SO-124)
1 62690U 25009CK  25308.47768466  .00099020  00000-0  19633-2 0  9999
2 62690  97.3961  29.9901 0002991 265.8561  94.2347 15.46669183 44842
HYDRA-T
1 62692U 25009CM  25308.61548722  .00096580  00000-0  18602-2 0  9991
2 62692  97.3960  30.2631 0003013 259.4912 100.5999 15.47521122 44871
JINJUSat 1B
1 63210U 25052A   25308.68315568  .00016151  00000-0  65061-3 0  9991
2 63210  97.4219 201.1220 0004820 131.5863 228.5788 15.24922737 35780
NUSHSAT 1
1 63211U 25052B   25308.63569917  .00018158  00000-0  71415-3 0  9995
2 63211  97.4200 201.1519 0004587 134.1703 225.9913 15.25701637 35780
TEVEL2-4
1 63213U 25052D   25308.42459732  .00018540  00000-0  74129-3 0  9997
2 63213  97.4126 200.5702 0003312 139.3918 220.7568 15.25149327 35743
TEVEL2-5
1 63214U 25052E   25308.42844048  .00018932  00000-0  75809-3 0  9997
2 63214  97.4121 200.5660 0003271 140.6404 219.5072 15.25095883 35744
TEVEL2-6
1 63215U 25052F   25308.43455109  .00018507  00000-0  74223-3 0  9992
2 63215  97.4130 200.5620 0003317 140.9077 219.2401 15.25048060 35749
TEVEL2-1
1 63217U 25052H   25308.66639575  .00017427  00000-0  70512-3 0  9997
2 63217  97.4097 200.6333 0002791 154.4076 205.7300 15.24764095 35772
TEVEL2-3
1 63218U 25052J   25308.66605538  .00017538  00000-0  70927-3 0  9993
2 63218  97.4098 200.6366 0002754 155.3178 204.8192 15.24779543 35775
TEVEL2-2
1 63219U 25052K   25308.66717912  .00017475  00000-0  70708-3 0  9991
2 63219  97.4097 200.6343 0002757 155.2903 204.8467 15.24763650 35775
TEVEL2-9
1 63237U 25052AD  25308.65973461  .00017132  00000-0  72232-3 0  9997
2 63237  97.4164 200.3838 0005767 201.1864 158.9135 15.23368302 35749
TEVEL2-7
1 63238U 25052AE  25308.67023604  .00016154  00000-0  68382-3 0  9999
2 63238  97.4163 200.3762 0005852 201.5443 158.5548 15.23245221 35745
TEVEL2-8
1 63239U 25052AF  25308.21535110  .00017753  00000-0  75202-3 0  9995
2 63239  97.4160 199.9132 0005776 203.5172 156.5802 15.23202291 35676
HYDRA-W
1 63490U 25052BL  25308.64367683  .00050587  00000-0  14819-2 0  9997
2 63490  97.4089 202.0608 0007085 184.2558 175.8626 15.35026544 35864
HADES-ICM (SO-125)
1 63492U 25052BN  25308.66396508  .00046856  00000-0  14310-2 0  9999
2 63492  97.4107 201.9012 0007208 192.0389 168.0683 15.33726291 35850
Dragonfly
1 65729U 98067XH  25308.76152545  .00088406  00000-0  10549-2 0  9999
2 65729  51.6310 328.4405 0003889  78.0733 282.0696 15.60292750  7219
RSP-03
1 65732U 98067XL  25308.32755644  .00078690  00000-0  98401-3 0  9992
2 65732  51.6309 330.7921 0005909  54.9153 305.2393 15.59100954  7151
GHS-01
1 65733U 98067XM  25308.30363461  .00104594  00000-0  12127-2 0  9996
2 65733  51.6324 330.6344 0004187  71.8718 288.2732 15.60965600  7155
BOTAN
1 65942U 98067XP  25308.30992354  .00070090  00000-0  10417-2 0  9990
2 65942  51.6322 332.1719 0004782  18.8156 341.3011 15.54512341  3875
